Погода в Карасуке

Погода в Карасуке : погода сейчас, прогноз погоды и архив. Всё, что Вы хотите узнать о погоде в Карасуке!

Хотите узнать прогноз погоды в Карасуке? Тогда Вам сюда: Погода в Карасуке

Поиск расширенной информации на нашем сайте:

Другие новости

Новости СМИ2

Главная страница сайта

Новости сайта

02.10.2013

Напоминаем, что на нашем новом сайте вы можете получить высокодетализированные прогнозы погоды по пунктам России, СНГ и мира (включающие важные для авиации метеовеличины, такие как направление и скорость ветра, видимость, явления погоды, количество и форма облачности, нижняя и верхняя граница облачности), а также ознакомиться с разнообразными материалами по авиационной метеорологии и подборкой полезных ссылок на эту тему.

Сайт Метеоцентр.Азия посвящён разработке технологий оптимизации авиаметеорологического обслуживания, включая проектирование и перспективное создание нескольких автоматизированных авиаметеорологических систем:
- система выпуска высокодетальных прогностических карт явлений погоды для нижнего воздушного пространства по России и ближнему зарубежью;
- система верификации прогнозов TAF (выпускаемых синоптиками официальных АМСГ РФ и ближнего зарубежья) и AUTOTAF (выпускаемых сайтом Метеоцентр.Азия) - выявление ошибок, онлайн-сопоставление с фактической погодой METAR, автоматическое внесение коррективов в прогнозы при резком отклонении фактической погоды от прогноза, подсчёт оправдываемости прогнозов по элементам и в целом;
- система обработки, анализа и отображения авиаметеорологической информации для применения провайдерами метеорологической информации.

Рекомендуем: контейнер прямоугольный с крышкой по низкой цене

Погода в Карасуке - сегодня

Время (UTC), дата Ветер
(°,м/с) 
Видим.   Явления Облачность Т
(°С)
Тd
(°С)
f(%) Тe
(°С)
Pmin
(гПа)
dP
(гПа)
Po
(мм)
O2
(г/м3)
Тmin Tmax R s Состояние
почвы
18 27.04.17 300 (СЗ) 20000 м    4/4 600 м 
[Sc]
+12 +8.1 77 +12  1019  1.6  754  290           
21 27.04.17 280 (З) 20000 м    10/10 840 м 
[Sc]
+10.9 +8.5 85 +11  1019.6  0.6  754  291           
00 28.04.17 270 (З) 20000 м    10/0 средняя 
[Ac und]
+9.8 +8.7 93 +9  1020.8  1.1  755  292  +9.8         
03 28.04.17 360 (С) 10 км  слаб. ливневой дождь  10/10 300 м кучево-дожд. 
[Cb calv]
+8.9 +6.5 85 +9  1022.1  1.2  756  294  +8.6         
06 28.04.17 330 (СЗ) 20000 м  {ливн. осадки}  10/10 400 м кучево-дожд. 
[Cb calv]
+9.2 +6.3 82 +9  1022.9  0.8  757  294           
09 28.04.17 320 (СЗ) 20000 м    10/10 570 м кучево-дожд. 
[Cb calv]
+10.3 +4.9 69 +10  1022.7  -0.1  757  293           
12 28.04.17 290 (З) 20000 м    10/8 540 м кучево-дожд., средняя 
[Cb calv|Ac As]
+11.1 +4.9 66 +11  1022.2  -0.5  756  292    +11.1  0.0     
15 28.04.17 220 (ЮЗ) 20000 м    4/0 средняя 
[Ac As]
+7.7 +3.9 77 +8  1022.7  0.4  756  296           
18 28.04.17 240 (ЮЗ) 20000 м    ясно 
+6.4 +3.7 83 +5  1023.4  0.6  757  297           
21 28.04.17 230 (ЮЗ) 20000 м    ясно 
+4.6 +2.3 85 +4  1023.2  -0.3  757  299           
00 29.04.17 200 (Ю) 20000 м    4/0 средняя, верхняя 
[Ac As|Ci sp]
+3.3 +1.4 87 +3  1022.9  -0.4  756  301  +1.9         
03 29.04.17 220 (ЮЗ) 20000 м    9/0 верхняя 
[Cs]
+10.7 +2.2 56 +10  1022.3  -0.2  756  293           
06 29.04.17 190 (Ю) 9-13{13}  20000 м    10/0 верхняя 
[Ci sp]
+16.9 -2.2 27 +16  1020.6  -1.4  755  287           
09 29.04.17 240 (ЮЗ) 10-14{14}  20000 м    10/0 средняя, верхняя 
[Ac As|Ci]
+19.2 -1.7 24 +19  1017.9  -2.6  753  284           
12 29.04.17 220 (ЮЗ) 9-14{14}  20000 м    10/4 600 м верхняя 
[Sc|Cs]
+17.4 -0.6 29 +17  1016.9  -1  752  285    +19.5       
15 29.04.17 040 (СВ) 3{14}  20000 м    10/10 480 м кучево-дожд. 
[Cb cap]
+12.3 +2.8 52 +12  1018.8  1.6  754  290           
18 29.04.17 020 (С) 20000 м    8/8 450 м кучево-дожд. 
[Cb cap]
+10.4 +2.7 59 +10  1019.2  0.3  754  292           
21 29.04.17 350 (С) 20000 м    8/8 540 м кучево-дожд. 
[Cb cap]
+8.2 +3.1 70 +8  1019.1  -0.2  754  294           
00 30.04.17 330 (СЗ) 20000 м    10/8 450 м кучево-дожд., средняя 
[Cb cap|Ac und]
+7.2 +3.4 77 +7  1019.3  0.2  754  295  +6.7         
03 30.04.17 310 (СЗ) 20000 м    10/0 средняя 
[Ac und]
+9 +1.4 59 +10  1019.4  0.1  754  294           
06 30.04.17 290 (З) 20000 м    8/8 900 м 
[Cu med, cong]
+13.8 -6.5 24 +14  1018.7  -0.4  754  290           
09 30.04.17 310 (СЗ) 20000 м    10/10 450 м кучево-дожд. 
[Cb calv]
+12.6 -6.4 26 +13  1017.9  -0.9  753  291           
12 30.04.17 360 (С) 4{14}  10 км  слаб. ливневой снег  10/10 210 м кучево-дожд. 
[Cb cap]
+1.3 -0.1 90 -1  1022.5  756  303    +13.8     
15 30.04.17 340 (С) 4{13}  20000 м  {ливн. осадки}  9/9 630 м кучево-дожд. 
[Cb cap]
+2.9 -2.9 66 +1  1025.3  2.8  758  303           
18 30.04.17 350 (С) 3{10}  20000 м  {ливн. осадки}  ясно 
+1.4 -4.8 63 1026.9  1.6  759  305           
Время (UTC), дата Ветер
(°,м/с) 
Видим.   Явления Облачность Т
(°С)
Тd
(°С)
f(%) Тe
(°С)
Pmin
(гПа)
dP
(гПа)
Po
(мм)
O2
(г/м3)
Тmin Tmax R s Состояние
почвы

Для получения пояснительной информации подведите курсор к названию столбца.

ПОГОДА в Карасуке - архив

Всё, что Вы хотите узнать о погоде в Карасуке - удобно и подробно!

Выберите нужную дату (начиная с 1 января 2015* года) и нажмите кнопку "Найти".
Будут отображены архивные сводки погоды по пункту Карасук, начиная с указанной даты.


Отображать данные в формате CSV (для использования в таблицах Excel)


Внимание! Наш архив погоды предназначен исключительно для личного некоммерческого использования в познавательных целях. Если Вам необходимы официальные справки о состоянии погоды (для производственных, юридических, коммерческих и т.п. целей), обращайтесь в органы Росгидромета.

*Примечание: данная дата относится к архиву по метеостанциям СССР (Россия, СНГ, Балтия).
Архив по метеостанциям Зарубежной Европы и Азии (кроме Китая) хранится 10 дней, по другим регионам земного шара (Китай, Африка, Америка, Австралия, Океания) - 1 день.

Карасук - район местоположения метеостанции


Название, широта, долгота, высота метеостанции:
Карасук 53.7°ш. 78.1°д. 115 м над ур. моря [Российская Федерация]

Дополнительная информация

В oтличие oт бoльшинства пoгoдных сайтoв мы публикуем пoдрoбную метеoинфoрмацию в детальнoм прoфессиoнальнoм фoрмате.

Характеристики температуры и влажнoсти вoздуха измеряются на высoте 2 м в тени вдали oт зданий и деревьев.
Скoрoсть ветра измеряется на высoте 10 м (на урoвне рoста челoвека скoрoсть ветра ниже в 1.5-2 раза). Если метеoстанция нахoдится в гoрoде или в лесу, тo скoрoсть ветра занижена на 2-4 м/с пo сравнению с oткрытым местoм. Скoрoсть ветра над акватoриями крупных рек и oзёр, а также на вершинах хoлмoв на 2-5 м/с выше, чем в oбычных услoвиях.
Атмoсфернoе давление в разных тoчках местнoсти мoжет значительнo oтличаться oт давления на метеoстанции, в зависимoсти oт услoвий рельефа (при пoдъёме на 10 м давление пoнижается примернo на 1 мм рт.ст.).